TimeEDT,TemperatureF,Dew PointF,Humidity,Sea Level PressureIn,VisibilityMPH,Wind Direction,Wind SpeedMPH,Gust SpeedMPH,PrecipitationIn,Events,Conditions,WindDirDegrees,DateUTC
12:53 AM,63.0,61.0,93,29.99,7.0,Variable,3.5,-,N/A,,Clear,0,2013-06-19 04:53:00
1:53 AM,63.0,60.1,90,29.99,10.0,North,3.5,-,N/A,,Clear,350,2013-06-19 05:53:00
2:53 AM,62.1,57.9,86,30.00,10.0,NNW,3.5,-,N/A,,Mostly Cloudy,340,2013-06-19 06:53:00
3:53 AM,60.1,57.0,90,30.00,10.0,Calm,Calm,-,N/A,,Partly Cloudy,0,2013-06-19 07:53:00
4:53 AM,57.9,55.9,93,30.01,10.0,NNW,3.5,-,N/A,,Mostly Cloudy,330,2013-06-19 08:53:00
5:53 AM,57.9,55.0,90,30.03,10.0,Calm,Calm,-,N/A,,Scattered Clouds,0,2013-06-19 09:53:00
6:53 AM,57.9,55.0,90,30.04,10.0,Variable,4.6,-,N/A,,Clear,0,2013-06-19 10:53:00
7:53 AM,60.1,54.0,80,30.06,10.0,North,5.8,-,N/A,,Clear,10,2013-06-19 11:53:00
8:53 AM,63.0,55.9,78,30.09,10.0,North,4.6,-,N/A,,Clear,10,2013-06-19 12:53:00
9:53 AM,66.9,57.0,70,30.09,10.0,Calm,Calm,-,N/A,,Clear,0,2013-06-19 13:53:00
10:53 AM,69.1,60.1,73,30.10,10.0,Variable,3.5,-,N/A,,Clear,0,2013-06-19 14:53:00
11:53 AM,73.0,62.1,68,30.11,10.0,Variable,4.6,-,N/A,,Scattered Clouds,0,2013-06-19 15:53:00
12:13 PM,71.6,60.8,69,30.12,10.0,Variable,5.8,-,N/A,,Mostly Cloudy,0,2013-06-19 16:13:00
12:23 PM,73.4,60.8,65,30.12,10.0,Calm,Calm,-,N/A,,Scattered Clouds,0,2013-06-19 16:23:00
12:26 PM,73.4,60.8,65,30.12,10.0,Calm,Calm,-,N/A,,Mostly Cloudy,0,2013-06-19 16:26:00
12:45 PM,71.6,59.0,64,30.12,10.0,NE,3.5,-,N/A,,Scattered Clouds,40,2013-06-19 16:45:00
12:53 PM,73.9,59.0,59,30.12,10.0,Calm,Calm,-,N/A,,Scattered Clouds,0,2013-06-19 16:53:00
1:53 PM,77.0,57.9,52,30.10,10.0,Calm,Calm,-,N/A,,Scattered Clouds,0,2013-06-19 17:53:00
2:53 PM,73.9,57.9,57,30.10,10.0,North,3.5,-,N/A,,Mostly Cloudy,350,2013-06-19 18:53:00
3:53 PM,78.1,57.9,50,30.09,10.0,Calm,Calm,-,N/A,,Scattered Clouds,0,2013-06-19 19:53:00
4:53 PM,79.0,57.0,47,30.09,10.0,NNW,4.6,-,N/A,,Partly Cloudy,330,2013-06-19 20:53:00
5:53 PM,79.0,55.9,45,30.08,10.0,NNW,4.6,-,N/A,,Partly Cloudy,340,2013-06-19 21:53:00
6:53 PM,79.0,57.0,47,30.09,10.0,Calm,Calm,-,N/A,,Partly Cloudy,0,2013-06-19 22:53:00
7:53 PM,75.9,59.0,56,30.09,10.0,Calm,Calm,-,N/A,,Clear,0,2013-06-19 23:53:00
8:53 PM,69.1,61.0,75,30.10,10.0,Calm,Calm,-,N/A,,Clear,0,2013-06-20 00:53:00
9:53 PM,64.9,61.0,87,30.13,10.0,Calm,Calm,-,N/A,,Clear,0,2013-06-20 01:53:00
10:53 PM,62.1,60.1,93,30.15,8.0,Calm,Calm,-,N/A,,Clear,0,2013-06-20 02:53:00
11:53 PM,60.1,57.9,93,30.16,7.0,Calm,Calm,-,N/A,,Clear,0,2013-06-20 03:53:00